Location: Bittkow
(50.3000°N, 19.0000°E)
Time: 03:41:07
(UTC+00:00)

CZ-4B R/B - Pass Details

Date: 19 September 2020
Orbit: 391 x 461 km, 97.6° (Epoch: 18 October)

Event Time Altitude Azimuth Distance (km) Brightness Sun altitude
Rises 03:10:15 0° 167° (SSE) 2,315 5.0 -12.7°
Reaches altitude 10° 03:12:12 10° 169° (S) 1,471 3.9 -12.4°
Maximum altitude 03:15:20 80° 256° (WSW) 429 1.1 -11.9°
Drops below altitude 10° 03:18:35 10° 344° (NNW) 1,522 4.1 -11.4°
Sets 03:20:38 0° 346° (NNW) 2,407 5.1 -11.1°
